Location: C�mpuri de-Sus
(45.9500°N, 22.5500°E)
Time: 05:18:20
(UTC+00:00)

Cosmos 2278 Rocket - Pass Details

Date: 24 October 2021
Orbit: 841 x 845 km, 71.0° (Epoch: 04 December)

Event Time Altitude Azimuth Distance (km) Brightness Sun altitude
Rises 17:45:57 0° 339° (NNW) 3,416 5.7 -24.5°
Reaches altitude 10° 17:48:45 10° 351° (N) 2,476 4.8 -25.0°
Enters shadow 17:52:06 25° 23° (NNE) 1,639 3.5 -25.6°
